Weather History for Joplin, MO

Change the Weather History Date:

Monday, April 30, 2012

  Actual Average Record
Temperature  
Mean Temperature 68 °F 63 °F  
Max Temperature 76 °F 74 °F 91 °F (1952)
Min Temperature 60 °F 52 °F 34 °F (2005)
Degree Days  
Heating Degree Days 0 4  
Month to date heating degree days 150 241  
Since 1 July heating degree days 3278 4003  
Cooling Degree Days 3 2  
Month to date cooling degree days 67 44  
Year to date cooling degree days 136 54  
Growing Degree Days 18 (Base 50)    
Moisture  
Dew Point 61 °F    
Average Humidity 80    
Maximum Humidity 100    
Minimum Humidity 60    
Precipitation  
Precipitation 1.37 in 0.19 in 3.48 in (1970)
Month to date precipitation 6.26 4.47  
Year to date precipitation 15.29 12.24  
Snow  
Snow 0.00 in - - ()
Month to date snowfall 0.0  
Since 1 July snowfall 0.8  
Snow Depth 0.00 in    
Sea Level Pressure  
Sea Level Pressure 29.95 in    
Wind  
Wind Speed 5 mph (South)    
Max Wind Speed 26 mph    
Max Gust Speed 32 mph    
Visibility 7 miles    
Events Rain , Thunderstorm    
T = Trace of Precipitation, MM = Missing Value Source: NWS Daily Summary

Daily Weather History Graph

Daily Weather History Graph

Search for Another Location

Airport:

Trip Planner

Search our weather history database for the weather conditions in past years. The results will help you decide how hot, cold, wet, or windy it might be!

Date:

Astronomy

Apr. 30, 2012 Rise Set
Actual Time 6:23 AM CDT 8:06 PM CDT
Civil Twilight 5:56 AM CDT 8:34 PM CDT
Nautical Twilight 5:22 AM CDT 9:08 PM CDT
Astronomical Twilight 4:46 AM CDT 9:44 PM CDT
Moon 2:12 PM CDT (4/30) 2:40 AM CDT (4/30)
Length of Visible Light 14h 38m
Length of Day
13h 42m
Waxing Gibbous, 64% of the Moon is Illuminated
Apr 30
Waxing Gibbous
May 5
Full
May 12
Last Quarter
May 20
New
May 28
First Quarter

Hourly Weather History & Observations

Time (CDT) Temp. Dew Point Humidity Pressure Visibility Wind Dir Wind Speed Gust Speed Precip Events Conditions
12:53 AM 72.0 °F 63.0 °F 73% 29.89 in 10.0 mi SSE 9.2 mph - N/A   Overcast
1:04 AM 71.6 °F 62.6 °F 73% 29.93 in 10.0 mi South 12.7 mph - N/A Thunderstorm Overcast
1:16 AM 71.6 °F 62.6 °F 73% 29.95 in 10.0 mi WSW 8.1 mph - N/A Thunderstorm Thunderstorm
1:53 AM 63.0 °F 60.1 °F 90% 29.96 in 3.0 mi Variable 6.9 mph 24.2 mph 0.10 in Rain , Thunderstorm Heavy Thunderstorms and Rain
2:37 AM 60.8 °F 60.8 °F 100% 29.99 in 1.8 mi WNW 13.8 mph - 0.19 in Rain , Thunderstorm Heavy Thunderstorms and Rain
2:41 AM 60.8 °F 60.8 °F 100% 30.00 in 1.2 mi West 13.8 mph - 0.28 in Rain Heavy Rain
2:47 AM 60.8 °F 60.8 °F 100% 29.99 in 0.8 mi Calm Calm - 0.45 in Rain , Thunderstorm Heavy Thunderstorms and Rain
2:48 AM 61.0 °F 60.1 °F 97% 29.96 in 0.8 mi Calm Calm - 0.46 in Rain , Thunderstorm Heavy Thunderstorms and Rain
2:58 AM 60.8 °F 60.8 °F 100% 29.99 in 2.0 mi SW 9.2 mph - 0.11 in Rain , Thunderstorm Thunderstorms and Rain
3:06 AM 60.8 °F 60.8 °F 100% 30.01 in 4.0 mi WSW 5.8 mph - 0.14 in Rain , Thunderstorm Heavy Thunderstorms and Rain
3:10 AM 60.8 °F 60.8 °F 100% 30.00 in 2.5 mi West 4.6 mph - 0.17 in Rain , Thunderstorm Heavy Thunderstorms and Rain
3:21 AM 60.8 °F 60.8 °F 100% 30.00 in 1.5 mi South 3.5 mph - 0.26 in Rain , Thunderstorm Heavy Thunderstorms and Rain
3:27 AM 60.8 °F 60.8 °F 100% 29.98 in 3.0 mi SE 4.6 mph - 0.28 in Rain Rain
3:53 AM 61.0 °F 60.1 °F 97% 29.96 in 6.0 mi SE 4.6 mph - 0.33 in Rain Rain
4:21 AM 60.8 °F 60.8 °F 100% 29.97 in 6.0 mi South 3.5 mph - 0.03 in Rain , Thunderstorm Heavy Rain
4:43 AM 60.8 °F 60.8 °F 100% 29.96 in 10.0 mi SE 4.6 mph - 0.04 in Rain Light Rain
4:53 AM 61.0 °F 60.1 °F 97% 29.94 in 10.0 mi Calm Calm - 0.05 in Rain , Thunderstorm Light Rain
5:44 AM 60.8 °F 60.8 °F 100% 29.99 in 5.0 mi South 3.5 mph - 0.06 in Rain Light Rain
5:53 AM 61.0 °F 61.0 °F 100% 29.97 in 7.0 mi South 3.5 mph - 0.07 in Rain , Thunderstorm Light Thunderstorms and Rain
6:53 AM 61.0 °F 60.1 °F 97% 29.97 in 4.0 mi ESE 6.9 mph - 0.17 in Rain , Thunderstorm Thunderstorms and Rain
7:39 AM 60.8 °F 59.0 °F 94% 29.92 in 9.0 mi SE 9.2 mph 18.4 mph 0.09 in Rain Light Rain
7:53 AM 60.1 °F 57.9 °F 93% 29.88 in 10.0 mi SE 9.2 mph 21.9 mph 0.09 in Rain Light Rain
8:53 AM 62.1 °F 60.1 °F 93% 29.97 in 10.0 mi WNW 3.5 mph - 0.00 in   Partly Cloudy
9:53 AM 63.0 °F 60.1 °F 90% 29.99 in 10.0 mi Variable 3.5 mph - N/A   Partly Cloudy
9:57 AM 62.6 °F 60.8 °F 94% 30.01 in 10.0 mi WSW 4.6 mph - N/A   Mostly Cloudy
10:53 AM 66.0 °F 61.0 °F 84% 30.02 in 10.0 mi West 9.2 mph - N/A   Mostly Cloudy
11:00 AM 64.4 °F 60.8 °F 88% 30.04 in 10.0 mi West 8.1 mph - N/A   Mostly Cloudy
11:53 AM 66.9 °F 60.1 °F 79% 30.01 in 10.0 mi SW 5.8 mph - N/A   Mostly Cloudy
12:53 PM 71.1 °F 61.0 °F 70% 29.99 in 10.0 mi SSW 5.8 mph - N/A   Mostly Cloudy
1:53 PM 72.0 °F 60.1 °F 66% 29.98 in 10.0 mi SSW 3.5 mph - N/A   Scattered Clouds
2:53 PM 73.0 °F 60.1 °F 64% 29.97 in 10.0 mi Calm Calm - N/A   Partly Cloudy
3:53 PM 75.0 °F 61.0 °F 62% 29.94 in 10.0 mi South 4.6 mph - N/A   Clear
4:53 PM 75.9 °F 61.0 °F 60% 29.92 in 10.0 mi South 6.9 mph - N/A   Clear
5:53 PM 75.9 °F 61.0 °F 60% 29.91 in 10.0 mi South 9.2 mph - N/A   Clear
6:53 PM 75.0 °F 63.0 °F 66% 29.90 in 10.0 mi SE 4.6 mph - N/A   Partly Cloudy
7:53 PM 72.0 °F 64.0 °F 76% 29.88 in 10.0 mi Variable 5.8 mph - N/A   Clear
8:53 PM 71.1 °F 64.9 °F 81% 29.86 in 10.0 mi ESE 6.9 mph - N/A   Mostly Cloudy
9:53 PM 71.1 °F 66.0 °F 84% 29.87 in 10.0 mi SE 5.8 mph - N/A   Clear
10:24 PM 71.6 °F 64.4 °F 78% 29.90 in 10.0 mi SSE 10.4 mph - N/A Thunderstorm Mostly Cloudy
10:53 PM 69.1 °F 66.0 °F 90% 29.86 in 4.0 mi SSE 16.1 mph 21.9 mph 0.07 in Rain , Thunderstorm Thunderstorms and Rain
11:03 PM 69.8 °F 66.2 °F 88% 29.88 in 6.0 mi SE 13.8 mph 21.9 mph 0.03 in Rain , Thunderstorm Heavy Thunderstorms and Rain
11:53 PM 69.1 °F 64.9 °F 87% 29.87 in 10.0 mi ESE 4.6 mph - 0.03 in Rain , Thunderstorm Light Thunderstorms and Rain